SL-8 DEB *

Satellite information

Favourite Embed

Satellite Type and Status

DEBRISIN ORBIT

Key statistics

Satellite SL-8 DEB * at a glance.

Uptime

15714

Days in orbit

Revolutions

≈ 14.5

Per day

Orbit

LEO

Low Earth Orbit

Inclination

74.1

Latest

Satellite identification and parameters

Extended collection of information and parameters for SL-8 DEB *.

Object identification

Identified? True

Debris? True

Object name: SL-8 DEB *

International designator: 1982-037C

Object number (NORAD): 14344

Object ID (CCSDS): 14344

Country: COMMONWEALTH OF INDEPENDENT STATES (CIS)

Current information (Y/N): Y

RCS size: SMALL

Orbital parameters

Period: 99.183 minutes

Inclination: 74.0562 deg

SMA: 7097.734 km

Apoapsis: 731.24 km

Periapsis: 707.958 km

RAAN: 248.8999 deg

Eccentricy: 0.0016401

Argument of periapsis: 96.6311 deg

Mean anomaly: 278.4619 deg

Mean motion: 14.51854763 rev/day

Mean motion (dot): 0.00002462 rev/day2

B* drag term: 0.000617 1/REarth

Two-line elements (TLE)

Creation date: May 6, 2025, 3:54 a.m.

Reference frame: TEME

Reference center: EARTH

Epoch: May 5, 2025, 2:24 p.m. UTC

TLE line 0: 0 SL-8 DEB *

TLE line 1: 1 14344U 82037C 25125.60040001 .00002462 00000-0 61700-3 0 9993

TLE line 2: 2 14344 74.0562 248.8999 0016401 96.6311 278.4619 14.51854763189772

Live tracking on map

Real-time ground track for satellite SL-8 DEB *.

In-orbit conjunctions

A list of the most updated potential collisions computed for object SL-8 DEB *.

Target Orbit TCA Probability of collision Miss distance Type
OAO 2 LEO 2025-01-06 17:32:41 0.0002084215 271.0 (m) PAYLOAD
FENGYUN 1C DEB SSO 2024-11-02 09:35:52 0.0001167868 74.0 (m) DEBRIS

Associated space launch

Military communications satellite

SL-8 DEB * was lifted into orbit during the mission ‘Kosmos-3M | Strela-2M 27’, on board a Kosmos-3M space rocket.

The launch took place on April 28, 1982, 2:52 a.m. from 132/1 (132L).

For more information about the launch, click the button.

Launch to space Kosmos-3M | Strela-2M 27
Kosmos-3M | Strela-2M 27

Agency: N/A

Status: Launch Successful

Launch date: April 28, 1982, 2:52 a.m. UTC

Rocket: Kosmos-3M

Launch pad: 132/1 (132L)

Location: Plesetsk Cosmodrome, Russian Federation

...

Latest news about this satellite

There are no fresh news available about this satellite. Check back as we update our databases every day.


Newsletter sign-up

Weekly statistics, charts and insights to help you stay on top of the space industry.